Time,TemperatureF,DewpointF,PressureIn,WindDirection,WindDirectionDegrees,WindSpeedMPH,WindSpeedGustMPH,Humidity,HourlyPrecipIn,Conditions,Clouds,dailyrainin,SoftwareType,DateUTC
2013-01-22 00:02:00,29.3,28.0,29.74,NE,49,0.0,0.0,96,0.00,,,0.00,weatherlink.com 1.10,2013-01-22 05:02:00,
2013-01-22 00:17:00,29.4,28.0,29.73,ENE,61,1.0,1.0,96,0.00,,,0.00,weatherlink.com 1.10,2013-01-22 05:17:00,
2013-01-22 00:32:00,29.4,28.0,29.72,East,79,0.0,1.0,96,0.00,,,0.00,weatherlink.com 1.10,2013-01-22 05:32:00,
2013-01-22 00:47:00,29.2,28.0,29.71,NE,49,1.0,2.0,96,0.00,,,0.00,weatherlink.com 1.10,2013-01-22 05:47:00,
2013-01-22 01:02:00,29.3,28.0,29.71,ESE,113,0.0,1.0,96,0.00,,,0.00,weatherlink.com 1.10,2013-01-22 06:02:00,
2013-01-22 01:17:00,29.0,28.0,29.72,ENE,59,0.0,2.0,96,0.00,,,0.00,weatherlink.com 1.10,2013-01-22 06:17:00,
2013-01-22 01:32:00,28.9,28.0,29.73,WSW,252,0.0,1.0,96,0.00,,,0.00,weatherlink.com 1.10,2013-01-22 06:32:00,
2013-01-22 01:47:00,28.8,28.0,29.73,WNW,288,1.0,3.0,96,0.00,,,0.00,weatherlink.com 1.10,2013-01-22 06:47:00,
2013-01-22 02:02:00,28.6,27.0,29.73,WSW,238,0.0,3.0,95,0.00,,,0.00,weatherlink.com 1.10,2013-01-22 07:02:00,
2013-01-22 02:17:00,28.5,27.0,29.72,NW,311,1.0,2.0,95,0.00,,,0.00,weatherlink.com 1.10,2013-01-22 07:17:00,
2013-01-22 02:32:00,28.4,27.0,29.72,West,266,0.0,1.0,95,0.00,,,0.00,weatherlink.com 1.10,2013-01-22 07:32:00,
2013-01-22 02:47:00,28.5,27.0,29.71,WSW,246,0.0,1.0,95,0.00,,,0.00,weatherlink.com 1.10,2013-01-22 07:47:00,
2013-01-22 03:02:00,28.4,27.0,29.70,West,276,0.0,3.0,95,0.00,,,0.00,weatherlink.com 1.10,2013-01-22 08:02:00,
2013-01-22 03:17:00,28.2,27.0,29.70,East,98,0.0,2.0,95,0.00,,,0.00,weatherlink.com 1.10,2013-01-22 08:17:00,
2013-01-22 03:32:00,28.1,27.0,29.70,WSW,252,2.0,2.0,95,0.00,,,0.00,weatherlink.com 1.10,2013-01-22 08:32:00,
2013-01-22 03:47:00,27.8,27.0,29.69,SW,225,1.0,2.0,95,0.00,,,0.00,weatherlink.com 1.10,2013-01-22 08:47:00,
2013-01-22 04:02:00,27.9,27.0,29.68,NNW,334,0.0,1.0,95,0.00,,,0.00,weatherlink.com 1.10,2013-01-22 09:02:00,
2013-01-22 04:17:00,27.9,27.0,29.68,North,359,0.0,1.0,95,0.00,,,0.00,weatherlink.com 1.10,2013-01-22 09:17:00,
2013-01-22 04:32:00,27.8,27.0,29.69,SW,232,0.0,2.0,95,0.00,,,0.00,weatherlink.com 1.10,2013-01-22 09:32:00,
2013-01-22 04:47:00,27.7,27.0,29.69,West,263,1.0,3.0,95,0.00,,,0.00,weatherlink.com 1.10,2013-01-22 09:47:00,
2013-01-22 05:02:00,27.4,26.0,29.70,WSW,239,3.0,5.0,95,0.00,,,0.00,weatherlink.com 1.10,2013-01-22 10:02:00,
2013-01-22 05:18:00,27.0,26.0,29.69,SW,226,2.0,4.0,94,0.00,,,0.00,weatherlink.com 1.10,2013-01-22 10:18:00,
2013-01-22 05:33:00,26.6,25.0,29.70,WNW,298,2.0,5.0,93,0.00,,,0.00,weatherlink.com 1.10,2013-01-22 10:33:00,
2013-01-22 05:48:00,25.9,24.0,29.71,SW,225,3.0,6.0,92,0.00,,,0.00,weatherlink.com 1.10,2013-01-22 10:48:00,
2013-01-22 06:03:00,25.5,24.0,29.71,SW,214,2.0,8.0,92,0.00,,,0.00,weatherlink.com 1.10,2013-01-22 11:03:00,
2013-01-22 06:18:00,25.2,23.0,29.72,WSW,255,1.0,7.0,91,0.00,,,0.00,weatherlink.com 1.10,2013-01-22 11:18:00,
2013-01-22 06:33:00,25.0,23.0,29.72,WSW,238,0.0,4.0,90,0.00,,,0.00,weatherlink.com 1.10,2013-01-22 11:33:00,
2013-01-22 06:48:00,24.6,21.0,29.73,WSW,239,4.0,4.0,87,0.00,,,0.00,weatherlink.com 1.10,2013-01-22 11:48:00,
2013-01-22 07:18:00,24.1,21.0,29.74,WSW,246,2.0,5.0,86,0.00,,,0.00,weatherlink.com 1.10,2013-01-22 12:18:00,
2013-01-22 07:33:00,24.2,21.0,29.75,West,262,3.0,7.0,87,0.00,,,0.00,weatherlink.com 1.10,2013-01-22 12:33:00,
2013-01-22 07:48:00,24.5,22.0,29.75,WSW,249,2.0,6.0,88,0.00,,,0.00,weatherlink.com 1.10,2013-01-22 12:48:00,
2013-01-22 08:18:00,25.3,21.0,29.76,SSW,195,1.0,8.0,83,0.00,,,0.00,weatherlink.com 1.10,2013-01-22 13:18:00,
2013-01-22 08:33:00,26.0,21.0,29.77,WNW,292,3.0,7.0,82,0.00,,,0.00,weatherlink.com 1.10,2013-01-22 13:33:00,
2013-01-22 08:48:00,25.9,21.0,29.77,WSW,240,5.0,14.0,80,0.00,,,0.00,weatherlink.com 1.10,2013-01-22 13:48:00,
2013-01-22 09:03:00,26.3,20.0,29.78,SW,222,12.0,12.0,78,0.00,,,0.00,weatherlink.com 1.10,2013-01-22 14:03:00,
2013-01-22 09:18:00,25.5,20.0,29.79,West,260,10.0,13.0,78,0.00,,,0.00,weatherlink.com 1.10,2013-01-22 14:18:00,
2013-01-22 09:33:00,25.4,19.0,29.79,WSW,250,6.0,15.0,77,0.00,,,0.00,weatherlink.com 1.10,2013-01-22 14:33:00,
2013-01-22 09:48:00,25.6,19.0,29.80,WSW,249,2.0,14.0,76,0.00,,,0.00,weatherlink.com 1.10,2013-01-22 14:48:00,
2013-01-22 10:03:00,25.8,19.0,29.80,West,266,12.0,15.0,76,0.00,,,0.00,weatherlink.com 1.10,2013-01-22 15:03:00,
2013-01-22 10:18:00,25.8,19.0,29.80,SSW,203,1.0,14.0,74,0.00,,,0.00,weatherlink.com 1.10,2013-01-22 15:18:00,
2013-01-22 10:33:00,26.7,18.0,29.80,WSW,250,7.0,12.0,71,0.00,,,0.00,weatherlink.com 1.10,2013-01-22 15:33:00,
2013-01-22 10:48:00,26.5,18.0,29.80,North,350,6.0,12.0,69,0.00,,,0.00,weatherlink.com 1.10,2013-01-22 15:48:00,
2013-01-22 11:03:00,26.6,17.0,29.80,West,281,4.0,16.0,68,0.00,,,0.00,weatherlink.com 1.10,2013-01-22 16:03:00,
2013-01-22 11:19:00,26.5,16.0,29.80,SSW,194,3.0,12.0,66,0.00,,,0.00,weatherlink.com 1.10,2013-01-22 16:19:00,
2013-01-22 11:34:00,26.1,16.0,29.81,West,267,11.0,12.0,65,0.00,,,0.00,weatherlink.com 1.10,2013-01-22 16:34:00,
2013-01-22 11:49:00,25.7,15.0,29.81,West,263,4.0,14.0,63,0.00,,,0.00,weatherlink.com 1.10,2013-01-22 16:49:00,
2013-01-22 12:04:00,25.6,14.0,29.81,NW,309,7.0,13.0,61,0.00,,,0.00,weatherlink.com 1.10,2013-01-22 17:04:00,
2013-01-22 12:19:00,26.5,15.0,29.81,West,262,6.0,15.0,61,0.00,,,0.00,weatherlink.com 1.10,2013-01-22 17:19:00,
2013-01-22 12:34:00,27.1,14.0,29.81,SW,221,6.0,15.0,59,0.00,,,0.00,weatherlink.com 1.10,2013-01-22 17:34:00,
2013-01-22 12:49:00,26.6,13.0,29.81,SW,216,3.0,14.0,56,0.00,,,0.00,weatherlink.com 1.10,2013-01-22 17:49:00,
2013-01-22 13:04:00,28.0,13.0,29.81,West,262,3.0,16.0,53,0.00,,,0.00,weatherlink.com 1.10,2013-01-22 18:04:00,
2013-01-22 13:19:00,27.8,12.0,29.82,South,173,1.0,12.0,52,0.00,,,0.00,weatherlink.com 1.10,2013-01-22 18:19:00,
2013-01-22 13:34:00,27.6,10.0,29.82,SW,229,5.0,11.0,47,0.00,,,0.00,weatherlink.com 1.10,2013-01-22 18:34:00,
2013-01-22 13:49:00,27.2,9.0,29.83,West,274,3.0,12.0,47,0.00,,,0.00,weatherlink.com 1.10,2013-01-22 18:49:00,
2013-01-22 14:04:00,27.2,9.0,29.83,WSW,240,4.0,11.0,47,0.00,,,0.00,weatherlink.com 1.10,2013-01-22 19:04:00,
2013-01-22 14:19:00,26.9,6.0,29.83,West,264,8.0,15.0,42,0.00,,,0.00,weatherlink.com 1.10,2013-01-22 19:19:00,
2013-01-22 14:34:00,27.0,8.0,29.84,SW,218,6.0,12.0,45,0.00,,,0.00,weatherlink.com 1.10,2013-01-22 19:34:00,
2013-01-22 14:49:00,26.9,7.0,29.84,WSW,243,5.0,15.0,43,0.00,,,0.00,weatherlink.com 1.10,2013-01-22 19:49:00,
2013-01-22 15:04:00,26.6,5.0,29.84,WSW,245,6.0,12.0,40,0.00,,,0.00,weatherlink.com 1.10,2013-01-22 20:04:00,
2013-01-22 15:19:00,26.2,4.0,29.85,WSW,238,6.0,13.0,39,0.00,,,0.00,weatherlink.com 1.10,2013-01-22 20:19:00,
2013-01-22 15:34:00,25.9,4.0,29.86,WSW,245,4.0,13.0,39,0.00,,,0.00,weatherlink.com 1.10,2013-01-22 20:34:00,
2013-01-22 15:49:00,24.6,4.0,29.86,WSW,243,6.0,12.0,42,0.00,,,0.00,weatherlink.com 1.10,2013-01-22 20:49:00,
2013-01-22 16:19:00,23.5,5.0,29.88,West,259,2.0,10.0,45,0.00,,,0.00,weatherlink.com 1.10,2013-01-22 21:19:00,
2013-01-22 16:34:00,23.2,6.0,29.89,WSW,257,1.0,7.0,47,0.00,,,0.00,weatherlink.com 1.10,2013-01-22 21:34:00,
2013-01-22 16:49:00,22.8,5.0,29.90,SSW,198,4.0,7.0,47,0.00,,,0.00,weatherlink.com 1.10,2013-01-22 21:49:00,
2013-01-22 17:05:00,22.7,6.0,29.91,SSW,212,3.0,7.0,48,0.00,,,0.00,weatherlink.com 1.10,2013-01-22 22:05:00,
2013-01-22 17:19:00,22.5,5.0,29.91,SW,223,2.0,7.0,48,0.00,,,0.00,weatherlink.com 1.10,2013-01-22 22:19:00,
2013-01-22 17:35:00,22.2,6.0,29.92,SSW,210,2.0,7.0,50,0.00,,,0.00,weatherlink.com 1.10,2013-01-22 22:35:00,
2013-01-22 17:50:00,21.7,6.0,29.93,West,260,3.0,5.0,52,0.00,,,0.00,weatherlink.com 1.10,2013-01-22 22:50:00,
2013-01-22 18:05:00,21.5,7.0,29.94,WSW,243,2.0,5.0,54,0.00,,,0.00,weatherlink.com 1.10,2013-01-22 23:05:00,
2013-01-22 18:20:00,21.5,6.0,29.95,SW,226,4.0,6.0,52,0.00,,,0.00,weatherlink.com 1.10,2013-01-22 23:20:00,
2013-01-22 18:35:00,21.3,6.0,29.95,WSW,246,4.0,9.0,51,0.00,,,0.00,weatherlink.com 1.10,2013-01-22 23:35:00,
2013-01-22 18:50:00,21.1,6.0,29.96,SSW,204,5.0,7.0,52,0.00,,,0.00,weatherlink.com 1.10,2013-01-22 23:50:00,
2013-01-22 19:05:00,20.9,6.0,29.96,SW,224,4.0,8.0,52,0.00,,,0.00,weatherlink.com 1.10,2013-01-23 00:05:00,
2013-01-22 19:20:00,20.7,6.0,29.97,SSW,200,4.0,7.0,54,0.00,,,0.00,weatherlink.com 1.10,2013-01-23 00:20:00,
2013-01-22 19:35:00,20.1,6.0,29.98,SSW,209,2.0,5.0,54,0.00,,,0.00,weatherlink.com 1.10,2013-01-23 00:35:00,
2013-01-22 20:05:00,20.0,4.0,29.98,WNW,282,3.0,9.0,50,0.00,,,0.00,weatherlink.com 1.10,2013-01-23 01:05:00,
2013-01-22 20:20:00,19.8,4.0,29.99,SW,232,7.0,8.0,50,0.00,,,0.00,weatherlink.com 1.10,2013-01-23 01:20:00,
2013-01-22 20:35:00,19.6,4.0,29.99,WSW,250,6.0,8.0,52,0.00,,,0.00,weatherlink.com 1.10,2013-01-23 01:35:00,
2013-01-22 20:50:00,19.2,4.0,30.00,WSW,245,5.0,9.0,51,0.00,,,0.00,weatherlink.com 1.10,2013-01-23 01:50:00,
2013-01-22 21:05:00,19.0,4.0,30.00,WSW,256,4.0,8.0,52,0.00,,,0.00,weatherlink.com 1.10,2013-01-23 02:05:00,
2013-01-22 21:20:00,18.9,4.0,30.00,SW,225,4.0,11.0,53,0.00,,,0.00,weatherlink.com 1.10,2013-01-23 02:20:00,
2013-01-22 21:35:00,18.8,4.0,30.00,SW,221,2.0,11.0,52,0.00,,,0.00,weatherlink.com 1.10,2013-01-23 02:35:00,
2013-01-22 21:50:00,18.8,5.0,30.01,SW,223,5.0,10.0,54,0.00,,,0.00,weatherlink.com 1.10,2013-01-23 02:50:00,
2013-01-22 22:05:00,18.4,5.0,30.02,WSW,255,4.0,8.0,55,0.00,,,0.00,weatherlink.com 1.10,2013-01-23 03:05:00,
2013-01-22 22:20:00,18.3,4.0,30.02,NW,307,1.0,13.0,54,0.00,,,0.00,weatherlink.com 1.10,2013-01-23 03:20:00,
2013-01-22 22:35:00,18.0,3.0,30.03,SW,229,3.0,10.0,53,0.00,,,0.00,weatherlink.com 1.10,2013-01-23 03:35:00,
2013-01-22 22:50:00,17.8,4.0,30.03,SW,226,4.0,12.0,54,0.00,,,0.00,weatherlink.com 1.10,2013-01-23 03:50:00,
2013-01-22 23:05:00,17.6,4.0,30.04,SW,228,3.0,11.0,56,0.00,,,0.00,weatherlink.com 1.10,2013-01-23 04:05:00,
2013-01-22 23:20:00,17.3,5.0,30.03,WNW,291,5.0,11.0,58,0.00,,,0.00,weatherlink.com 1.10,2013-01-23 04:20:00,
2013-01-22 23:36:00,17.1,5.0,30.04,WSW,239,1.0,6.0,59,0.00,,,0.00,weatherlink.com 1.10,2013-01-23 04:36:00,
2013-01-22 23:51:00,17.0,6.0,30.04,West,259,2.0,8.0,61,0.00,,,0.00,weatherlink.com 1.10,2013-01-23 04:51:00,